Regional Weather Roundup
Issued by NWS Midland/Odessa, TX

Skip options and go directly to product.
Home | Oldest Version | Previous Version | Current Version | All | Graphics & Text | Save Text | Print | Product List | Glossary On

Skip product version selection by date and time.   
916
ASUS44 KMAF 310510
RWRMAF
MIDLAND AREA WEATHER ROUNDUP
NATIONAL WEATHER SERVICE MIDLAND TX
1200 AM CDT THU JUL 31 2014

...IN SOUTHWEST TEXAS AND SOUTHEAST NEW MEXICO...

CITY           SKY/WX    TMP DP  RH WIND       PRES   REMARKS
ALPINE         CLOUDY    71  60  67 E7        30.24F
ANDREWS        MOCLDY    77  62  59 NE18G26   30.12R
ARTESIA        MOCLDY    77  59  53 NE22G28   30.16R
BIG SPRING     CLOUDY    82  64  55 SW6       30.10R
CARLSBAD       CLOUDY    75  68  78 N6        30.10R
DRYDEN           N/A     94  49  21 N13       29.98R
FORT STOCKTON  CLOUDY    82  60  47 E15       30.07S
GUAD PASS      RAIN      71  61  70 N26       30.23R
HOBBS          CLOUDY    72  59  64 NE23      30.18R
MARFA          CLOUDY    70  57  64 NE14      30.21S
MIDLAND AIRPK  CLOUDY    76  68  77 NE7       30.09R
MIDLAND INTL   CLOUDY    78  67  68 NE6       30.08R
ODESSA         LGT RAIN  76  69  79 SE6       30.08R
PECOS          CLOUDY    75  68  78 N9        30.03R
PRESIDIO       FAIR      90  55  31 N9        29.99R
SEMINOLE       CLOUDY    74  59  58 NE14G22   30.15R
SNYDER         MOCLDY    80  68  68 N13G20    30.07R
WINK           CLOUDY    79  67  66 NE7       30.03S
$$
...OTHER STATIONS IN TEXAS...

CITY           SKY/WX    TMP DP  RH WIND       PRES   REMARKS
ABILENE        MOCLDY    78  68  71 N7        30.00S
AMARILLO       CLOUDY    64  60  87 N14       30.24R
AUSTIN         CLEAR     81  63  54 S12       29.95R
BROWNSVILLE    CLEAR     82  77  84 SE14G22   29.96R
CORPUS CHRISTI PTCLDY    82  75  79 S12       29.95R
DALLAS FTW     MOCLDY    82  70  66 SE17      29.91R
DEL RIO        CLEAR     90  54  29 E9        29.90R
EL PASO        CLOUDY    82  60  47 CALM      30.10R
HOUSTON INT    PTCLDY    80  74  81 CALM      29.98R
LUBBOCK        CLOUDY    70  61  73 N18G26    30.15R
SAN ANGELO     CLOUDY    87  55  33 SE8       29.98R
SAN ANTONIO    PTCLDY    81  69  67 SE14      29.97R
WACO           PTCLDY    83  70  64 SE18G25   29.93S
WICHITA FALLS  NOT AVBL
$$
...OTHER LOCATIONS IN NEW MEXICO...

CITY           SKY/WX    TMP DP  RH WIND       PRES   REMARKS
ALAMAGORDO     CLOUDY    82  55  39 W6        30.12R
ALBUQUERQUE    MOCLDY    69  60  73 E23G35    30.22R THUNDER
CANNON AFB     CLOUDY    65  62  91 NE17      30.27S
CLOVIS         CLOUDY    64  57  77 NE15      30.29R
HOLLOMAN AFB   CLOUDY    81  61  50 SW7       30.11R
ROSWELL        MOCLDY    73  61  65 NE12      30.19R
RUIDOSO        MOCLDY    63  57  82 SE12      30.40R
SANTA FE       LGT RAIN  64  56  75 SE18G25   30.31R
TRUTH OR CONSE CLOUDY    76  55  48 SW9       30.13R
TUCUMCARI      PTCLDY    66  57  72 NE16      30.26R
$$

USA.gov is the U.S. government's official web portal to all federal, state and local government web resources and services.